Le Raizet Airport, Guadeloupe

7:55 PM AST on June 22, 2018 (GMT -0400)
Le Raizet

Weather History for TFFR - October, 2017

Change the Weather History Date:

Tuesday, October 3, 2017

  Actual Average Record
Temperature  
Mean Temperature 80 °F -  
Max Temperature 87 °F 86 °F 91 °F (1997)
Min Temperature 72 °F 73 °F 72 °F (2017)
Cooling Degree Days 14    
Growing Degree Days 30 (Base 50)    
Moisture  
Dew Point 74 °F    
Average Humidity 81    
Maximum Humidity 100    
Minimum Humidity 52    
Precipitation  
Precipitation 0.16 in 0.30 in - ()
Sea Level Pressure  
Sea Level Pressure 29.88 in    
Wind  
Wind Speed 5 mph ()    
Max Wind Speed 16 mph    
Max Gust Speed -    
Visibility 6.4 miles    
Events Rain    
Averages and records for this station are not official NWS values.
T = Trace of Precipitation, MM = Missing Value Source: Averaged Metar Reports

Daily Weather History Graph

Daily Weather History Graph

Search for Another Location

Airport or City:

Astronomy

Oct. 03, 2017 Rise Set
Actual Time 5:56 AM AST 5:53 PM AST
Civil Twilight 5:34 AM AST 6:14 PM AST
Nautical Twilight 5:09 AM AST 6:39 PM AST
Astronomical Twilight 4:44 AM AST 7:04 PM AST
Moon 4:38 PM AST (10/3) 3:52 AM AST (10/3)
Length of Visible Light 12h 40m
Length of Day
11h 56m
Waxing Gibbous, 95% of the Moon is Illuminated
Oct 3
Waxing Gibbous
Oct 5
Full
Oct 12
Last Quarter
Oct 19
New
Oct 27
First Quarter

Hourly Weather History & Observations

Time (AST) Temp. Heat Index Dew Point Humidity Pressure Visibility Wind Dir Wind Speed Gust Speed Precip Events Conditions
12:00 AM 75.2 °F - 73.4 °F 94% 29.89 in 6.2 mi Calm Calm - N/A   Scattered Clouds
12:30 AM 75.2 °F - 73.4 °F 94% 29.89 in 6.2 mi Calm Calm - N/A   Scattered Clouds
1:00 AM 77.0 °F - 75.2 °F 94% 29.89 in 6.2 mi East 4.6 mph - N/A   Mostly Cloudy
1:30 AM 75.2 °F - 73.4 °F 94% 29.89 in 6.2 mi ESE 3.5 mph - N/A   Unknown
2:00 AM 75 °F - 74 °F 94% 29.88 in 7 mi SE 1.2 mph - -   Clear
2:00 AM 75.2 °F - 73.4 °F 94% 29.86 in - Calm Calm - N/A   Clear
2:30 AM 75.2 °F - 73.4 °F 94% 29.86 in 5.0 mi Calm Calm - N/A   Unknown
3:00 AM 75.2 °F - 73.4 °F 94% 29.86 in 5.0 mi Calm Calm - N/A   Mostly Cloudy
3:30 AM 73.4 °F - 73.4 °F 100% 29.86 in 5.0 mi SSE 1.2 mph - N/A   Partly Cloudy
4:00 AM 75.2 °F - 73.4 °F 94% 29.83 in 5.0 mi Calm Calm - N/A   Partly Cloudy
4:30 AM 73.4 °F - 73.4 °F 100% 29.86 in 4.3 mi Calm Calm - N/A   Unknown
5:00 AM 73 °F - 73 °F 99% 29.86 in 5 mi NW 1.2 mph - -   Clear
5:00 AM 73.4 °F - 73.4 °F 100% 29.86 in 5.0 mi Calm Calm - N/A   Partly Cloudy
5:30 AM 73.4 °F - 73.4 °F 100% 29.86 in 5.0 mi SSW 2.3 mph - N/A   Partly Cloudy
6:00 AM 73.4 °F - 73.4 °F 100% 29.86 in 5.0 mi Calm Calm - N/A   Partly Cloudy
6:30 AM 75.2 °F - 73.4 °F 94% 29.86 in 4.3 mi Calm Calm - N/A   Unknown
7:00 AM 77.0 °F - 75.2 °F 94% 29.86 in 5.0 mi ESE 1.2 mph - N/A   Unknown
7:30 AM 80.6 °F 87.1 °F 77.0 °F 89% 29.89 in 6.2 mi East 3.5 mph - N/A   Scattered Clouds
8:00 AM 83 °F - 76 °F 74% 29.90 in 11 mi East 8.1 mph - -   Clear
8:00 AM 82.4 °F 89.5 °F 75.2 °F 79% 29.89 in - East 8.1 mph - N/A   Clear
8:30 AM 84.2 °F 92.3 °F 75.2 °F 74% 29.89 in 6.2 mi East 10.4 mph - N/A   Partly Cloudy
9:00 AM 82.4 °F 89.5 °F 75.2 °F 79% 29.92 in 6.2 mi East 9.2 mph - N/A Rain Heavy Rain
9:30 AM 84.2 °F 94.1 °F 77.0 °F 79% 29.92 in 6.2 mi SE 4.6 mph - N/A   Mostly Cloudy
10:00 AM 86.0 °F 95.1 °F 75.2 °F 70% 29.92 in 6.2 mi SE 13.8 mph - N/A   Mostly Cloudy
10:30 AM 87.8 °F 97.6 °F 75.2 °F 66% 29.92 in 6.2 mi ESE 12.7 mph - N/A   Mostly Cloudy
11:00 AM 87 °F - 72 °F 52% 29.92 in 37 mi SE 16.1 mph - -   Clear
11:00 AM 87.8 °F 93.8 °F 71.6 °F 58% 29.92 in 6.2 mi SE 16.1 mph - N/A   Partly Cloudy
11:30 AM 87.8 °F 97.6 °F 75.2 °F 66% 29.92 in 6.2 mi ESE 15.0 mph - N/A   Scattered Clouds
12:00 PM 86.0 °F 93.4 °F 73.4 °F 66% 29.89 in 6.2 mi SE 12.7 mph - N/A   Mostly Cloudy
12:30 PM 86.0 °F 95.1 °F 75.2 °F 70% 29.89 in 6.2 mi ESE 13.8 mph - N/A   Mostly Cloudy
1:00 PM 86.0 °F 93.4 °F 73.4 °F 66% 29.89 in 6.2 mi ESE 15.0 mph - N/A   Mostly Cloudy
1:30 PM 86.0 °F 93.4 °F 73.4 °F 66% 29.86 in 6.2 mi SE 16.1 mph - N/A   Partly Cloudy
2:00 PM 87 °F - 75 °F 59% 29.86 in 31 mi SE 16.1 mph - -   Clear
2:00 PM 86.0 °F 95.1 °F 75.2 °F 70% 29.86 in 6.2 mi SE 16.1 mph - N/A   Partly Cloudy
2:30 PM 86.0 °F 95.1 °F 75.2 °F 70% 29.83 in 6.2 mi SE 15.0 mph - N/A   Partly Cloudy
3:00 PM 87.8 °F 95.6 °F 73.4 °F 62% 29.83 in 6.2 mi SE 13.8 mph - N/A   Partly Cloudy
3:30 PM 86.0 °F 93.4 °F 73.4 °F 66% 29.83 in - SE 12.7 mph - N/A   Clear
4:00 PM 86.0 °F 93.4 °F 73.4 °F 66% 29.83 in - ESE 12.7 mph - N/A   Clear
4:30 PM 86.0 °F 93.4 °F 73.4 °F 66% 29.83 in 6.2 mi ESE 11.5 mph - N/A   Partly Cloudy
5:00 PM 85 °F - 73 °F 60% 29.86 in 28 mi ESE 11.5 mph - -   Clear
5:00 PM 84.2 °F 90.9 °F 73.4 °F 70% 29.83 in 6.2 mi ESE 11.5 mph - N/A   Partly Cloudy
5:30 PM 84.2 °F 90.9 °F 73.4 °F 70% 29.86 in - ESE 9.2 mph - N/A   Clear
6:00 PM 82.4 °F 89.5 °F 75.2 °F 79% 29.86 in - ESE 8.1 mph - N/A   Clear
6:30 PM 82.4 °F 89.5 °F 75.2 °F 79% 29.86 in - ESE 6.9 mph - N/A   Clear
7:00 PM 80.6 °F 86.2 °F 75.2 °F 84% 29.86 in 6.2 mi East 5.8 mph - N/A   Partly Cloudy
7:30 PM 80.6 °F 86.2 °F 75.2 °F 84% 29.86 in - ENE 3.5 mph - N/A   Clear
8:00 PM 80 °F - 75 °F 82% 29.87 in 16 mi ESE 3.5 mph - -   Clear
8:00 PM 80.6 °F 86.2 °F 75.2 °F 84% 29.86 in - ESE 3.5 mph - N/A   Clear
8:30 PM 78.8 °F - 75.2 °F 89% 29.89 in - ESE 3.5 mph - N/A   Clear
9:00 PM 78.8 °F - 75.2 °F 89% 29.89 in - East 4.6 mph - N/A   Clear
9:30 PM 78.8 °F - 75.2 °F 89% 29.89 in 6.2 mi Variable 3.5 mph - N/A   Partly Cloudy
10:00 PM 78.8 °F - 75.2 °F 89% 29.89 in - East 2.3 mph - N/A   Clear
10:30 PM 78.8 °F - 75.2 °F 89% 29.89 in - NE 2.3 mph - N/A   Clear
11:00 PM 79 °F - 75 °F 85% 29.91 in 13 mi NNE 2.3 mph - -   Clear
11:00 PM 78.8 °F - 75.2 °F 89% 29.89 in 6.2 mi Variable 2.3 mph - N/A   Partly Cloudy
11:30 PM 80.6 °F 87.1 °F 77.0 °F 89% 29.89 in 6.2 mi NE 4.6 mph - N/A   Unknown